[Date Prev][Date Next][Thread Prev][Thread Next][Date Index][Thread Index]

[jamsat-news:1340] jas2info #202



========================   最新情報   ==============================

        Last updated :Mon03Oct2000  21:30 (JST) #202

====================================================================
   
  1)アマチュア通信衛星情報 FOシリーズの軌道要素、テレメトリ、
   QSOの状況等をまとめてみました.
   
   FO−29の10月02日(月)のテレメトリは10:42(JST)のパスでは
  JARLのホームぺージのとうりアナログ運用でした。今まで観測したテレメトリーと分析
  結果を掲載しておきます.   

  AS20374C1    02Oct2000
  10:49-10:58(JST)
  Freq. - 435.787MHz

 HI HI AE C7 88 55 00 D8 29 1C 09 0E 30 67 87 60 93 90 B0    B6 B4 B9 B8 B6 
 HI HI AE C7 88 55 00 D8 29 1C 09 0E 5C 5D 8D 60 93 90 B0 95 B6 B4 B9 B8 B6 
 HI HI AE C7 88 51 00 F0 29 1C 09 0E 4A 53 8B 60 92 90 B0 93 B6 B4 B8 B8 B6 
 HI HI AE C7 88 55 00 F5 29 1C 09 0E 62 6D 7F 60 92 90 B0 8D B6 B3 B8 B8 B6 
 HI HI AE C7 88 55 00 F5 29 1C 09 0E 79 46 88 60 92 90 B0 7F B6 B3 B8 B8 B6 
 HI HI AE C7 88 51 00 06 29 1C 09 0E 94 3D 7E 60 93 91 B0 72 B5 B3 B8 B7 B6 
 HI HI AE C7 88 55 00 2D 29 1C 08 0E 60 93 92 A0 93 91 B0 73 B5 B3 B8 B7 B6
 HI HI AE C7 88 51 00 16 29 1C 09 0E 3F A3 73 60 93 91 B0 72 B5 B2 B7 B7 B6 

 ------------------------ FO-29の軌道要素 ------------------------------        
 
  ■ 軌道要素1:「jamsat−keps:1031」より         
          SB KEPS @ AMSAT  $ORB00265.N
          2Line Orbital Elements 00265.AMSAT

 HR AMSAT ORBITAL ELEMENTS FOR AMATEUR SATELLITES IN NASA FORMAT
 FROM WA5QGD FORT WORTH,TX September 21, 2000
 SEND SUBSCRIBE/UNSUBSCRIBE TO majordomo@amsat.org ONLY
 BID: ORB00265.N

 DECODE 2-LINE ELSETS WITH THE FOLLOWING KEY:
 1 AAAAAU 00  0  0 BBBBB.BBBBBBBB  .CCCCCCCC  00000-0  00000-0 0  DDDZ
 2 AAAAA EEE.EEEE FFF.FFFF GGGGGGG HHH.HHHH III.IIII JJ.JJJJJJJJKKKKKZ
 KEY: A-CATALOGNUM B-EPOCHTIME C-DECAY D-ELSETNUM E-INCLINATION F-RAAN
 G-ECCENTRICITY H-ARGPERIGEE I-MNANOM J-MNMOTION K-ORBITNUM Z-CHECKSUM

 TO ALL RADIO AMATEURS BT

 FO-29
 1 24278U 96046B   00263.71902345 -.00000011  00000-0  26535-4 0 03655
  2 24278 098.5782 159.1159 0351475 342.4802 016.4453 13.52737496202074  

 ■ 軌道要素2:「jamsat−keps:1032」より                    
         SB KEPS @ AMSAT  $ORB00265.O
         Orbital Elements  00265.OSCAR

 HR AMSAT ORBITAL ELEMENTS FOR OSCAR SATELLITES
 FROM WA5QGD FORT WORTH,TX September 21, 2000
 SEND SUBSCRIBE/UNSUBSCRIBE TO majordomo@amsat.org ONLY
 BID: ORB00265.O
 TO ALL RADIO AMATEURS BT

  Satellite: FO-29
 Catalog number: 24278
 Epoch time:      00263.71902345
 Element set:    0365
 Inclination:      098.5782 deg
 RA of node:       159.1159 deg
 Eccentricity:    0.0351475
 Arg of perigee:   342.4802 deg
 Mean anomaly:     016.4453 deg
 Mean motion:   13.52737496 rev/day
 Decay rate:       -1.1e-07 rev/day^2
 Epoch rev:           20207
 Checksum:              303

-------------------  FO-29(JAS-2)のテレメトリに関する情報  ---------------------- 
 
2)上記テレメトリーの最後の行を分析しておきます.
 
  AS20374C1    02Oct2000
  10:49-10:58(JST)
  Freq. - 435.787MHz
 
 HI HI AE C7 88 51 00 16 29 1C 09 0E 3F A3 73 60 93 91 B0 72 B5 B2 B7 B7 B6 
 
テレメトリ  内 容      換算算値 単 位  

 3C	磁気センサーZ軸=	30882.3	[nT]
 3D	磁気センサX軸	=	79901.9	[nT]
 4A	太陽電池発生電流=	 1127.5	[mA]
 4B	B充放電電流	=	 -118.4	[mA]
 4C	B端子電圧	=	   15.8	[V]
 4D	B中間端子電圧	=	    7.0	[V]
 5A	バス電圧  	=	   17.3	[V]
 5B	JTA送信電力	=	  642.9	[mW]
 5C 	構体温度1	=	   11.6	[℃]
 5D	構体温度2	=	   12.8	[℃]
 6A	構体温度3	=	   10.8	[℃]
 6B	構体温度4	=	   10.8	[℃]
 
 ===========================  FO-29(ふじ3号)のQSO情報等 ======================
   
 3)[jamsat-bb:

 ===============================================================================
   4)JARL のホームページに運用予定が記載されていましたのでご紹介します.
       ( http://www.jarl.or.jp/Japanese/3_Fuji/new/uy.htm )

        ■ ふじ3号/FOー29/JAS-2 ■  
   
     *** 運用予定について *** 
   
  10月02日 〜 10月06日 アナログ系運用 
 ※10月07日 〜 11月05日デジトーカ運用
 
 ※夏休み期間中のデジトーカ運用が大変好評を得ましたので,秋の行事に併せて
  約1ヶ月間デジトーカ運用を行います。なお,デジトーカの音声メッセージは
  新音声データをUPする予定ですのでご期待ください。

  *なお,運用予定は都合により変更することがありますのでご了承願います。

 照会先 : lab@jarl.or.jp

 最新の情報はテレホンサービス(03−3942−1000)をお聞きください。  
 以後の運用につきましては11月上旬にお知らせいたします。
 
 ふじ2号(JAS−1b)の運用 

 CWテレメトリの機能に障害が発生しています。詳細は「ふじ2号」の現況をご覧ください。
 運用はアナログ系の連続運用とします。
 
 
-----------------------    FO−20(JAS-1b)道要素   -------------------------
  5)
  ■ 軌道要素1 :出典はFO-29「ふじ3号」に同じ.
  
  FO-20
 1 20480U 90013C   00263.87248329  .00000011  00000-0  98458-4 0 02781
 2 20480 099.0673 016.6056 0540216 200.8929 156.9312 12.83278636497421
 
  ■ 軌道要素2 :出典はFO−29「ふじ3号」に同じ.
               
  Satellite: FO-20
 Catalog number: 20480
 Epoch time:      00263.87248329
 Element set:    0278
 Inclination:      099.0673 deg
 RA of node:       016.6056 deg
 Eccentricity:    0.0540216
 Arg of perigee:   200.8929 deg
 Mean anomaly:     156.9312 deg
 Mean motion:   12.83278636 rev/day
 Decay rate:        1.1e-07 rev/day^2
 Epoch rev:           49742
 Checksum:              305

 --------------------------------------------------------------------------------
 
         ■ ふじ2号/FO−20/JAS-1b ■      
            
          「ふじ2号」 現況                                                                                  
             
   JAS-1b(ふじ2号)のCWテレメトリ信号に,1997年10月12日12時(JST)の
 日本上空通過時,3桁の数字が繰り返されるはずが3個の長音の繰り返しとなっているという
 異常が発見されました。この不具合は次の通過時からは回復していましたが13日15時20分の
 通過時に再び観測されました。現在はA0の送信が続いています。衛星のアナログ系中継モード
 動作は異常が無く,正常時のテレメトリ内容からは衛星の動作に異常は認められません。従って,
 直ちに衛星のミッションに影響することは無いと予想されますので,当面はアナログ系中継
 モードを継続します。衛星は既に打ち上げてから7年8ヶ月を経ておりますので,今後は監視を
 強化する予定です。アマチュア各位のレポートをお待ちします。
 -------------------------------------------------------------------------------- 
  1997年10月14日 00時35分 確認のテレメトリ音 151 KB (A0) 
  1997年10月14日 11時10分 確認のテレメトリ音 216 KB (異常キーイング) 

  以上 JARLのホ−ムページの http://www.jarl.or.jp/Japanese/3_Fuji/new/fuji.htm

===================== FO-20 ふじ2号 のテレメトリ観測結果 ====================

   6月3日(土)の14:15(JST)のパスの観測結果では以前観測した結果よりも変動のない
 単一周波数でドップラー効果で周波数がずれていくのみの状態に戻っておりました。
                                         
   =============   JAS-2 (ふじ3号)と現在までの情報   ===========
  
  A.電話によるふじ3号の運用情報
      社団法人日本アマチュア連盟によるサービス
           TEL .   03− 3942 − 1000
  B.アマチュア無線FAXサービス
      JARLによるふじ3号の軌道情報(オービットカレンダー)
         FAX No.  03− 3233 −0055
  C.WWWブラウザで情報を簡単に見れる人のためにJAS−2
     ふじ3号の衛星としての運用されるまでの名前)の概要、打ち上げ
     までの状況、運用中における状況を説明したホームページを紹介し
     ておきます.
     社団法人日本アマチュア無線連盟(JARL)のホームページ

          http://www.jarl.or.jp/Japanese/3_Fuji/jasmenu.htm
 
     宇宙開発事業団(NASDA)ホームページ 
          http://www.nasda.go.jp/
         打上げ衛星 :地球観測プラットフォーム技術衛星(ADEOS) 
                       アマチュア衛星3号(JAS-2)
          http://yyy.tksc.nasda.go.jp/Home/Press/Press-j/jas-2_j.html        

  D.JAMSATによる軌道情報の活用
        JAMSATのホームページまたはjamsat−kepsの軌道要素より
      衛星の軌道情報を得る.
     JAMSATホームページ
               URL    http://www.jamsat.or.jp
       上記ホームページでは各地で行われるアマチュア通信衛星に関する
      ミューティングのお知らせや世界のアマチュア衛星に関する情報が
      満載されています.
 ========================================================================  
     JAMSATのメンバーのご協力によりJH6MME(高山 秀造)が
    執筆・編集を担当しております.ご指摘の意見、疑問やこのようにしたら
    というアイデアがありましたら小さなことでもかまいませんので気軽に下
    記アドレスまでご連絡ください.jamsat−newsからjas2
    infoへの転載をJH4PHW局坂井さんに担当して頂いております.  
                  E-mail : jh6mme@jamsat.or.jp : jh4phw@jamsat.or.jp
 ===============================   END  ===============================